This is the latest recevied weather packets stored in our database for station/object N9EA. If no packets are shown the sender has not sent any weather packets the latest 10 day(s).
| Time | Temp. | Humidity | Pressure | Rain* | Wind** | Luminosity | Snow |
|---|---|---|---|---|---|---|---|
| 1777326282 | 22.22° C | 67% | 999.8 hPa | 0 mm | - | 369 W/m² | - |
| 1777325979 | 22.78° C | 67% | 999.6 hPa | 0 mm | - | 106 W/m² | - |
| 1777325678 | 22.78° C | 67% | 999.5 hPa | 0 mm | - | 351 W/m² | - |
| 1777325376 | 22.78° C | 67% | 999.8 hPa | 0 mm | - | 420 W/m² | - |
| 1777325073 | 22.22° C | 68% | 999.8 hPa | 0 mm | - | 432 W/m² | - |
| 1777324769 | 22.22° C | 68% | 1000 hPa | 0 mm | - | 294 W/m² | - |
| 1777324468 | 21.67° C | 68% | 1000 hPa | 0 mm | - | 300 W/m² | - |
| 1777324164 | 21.11° C | 70% | 1000.1 hPa | 0 mm | - | 146 W/m² | - |
| 1777323863 | 21.67° C | 70% | 1000 hPa | 0 mm | - | 80 W/m² | - |
| 1777323559 | 21.67° C | 70% | 999.9 hPa | 0 mm | - | 160 W/m² | - |
| 1777323256 | 21.67° C | 69% | 999.9 hPa | 0 mm | - | 105 W/m² | - |
| 1777322954 | 21.11° C | 69% | 999.7 hPa | 0 mm | - | 102 W/m² | - |
| 1777322652 | 21.67° C | 69% | 999.7 hPa | 0 mm | - | 163 W/m² | - |
| 1777322349 | 21.67° C | 68% | 999.7 hPa | 0 mm | - | 142 W/m² | - |
| 1777322046 | 21.67° C | 67% | 999.5 hPa | 0 mm | - | 207 W/m² | - |
| 1777321742 | 21.67° C | 67% | 999.5 hPa | 0 mm | - | 259 W/m² | - |
| 1777321440 | 21.67° C | 69% | 999.5 hPa | 0 mm | - | 263 W/m² | - |
| 1777321136 | 21.67° C | 69% | 999.5 hPa | 0 mm | - | 141 W/m² | - |
| 1777320835 | 21.67° C | 68% | 999.4 hPa | 0 mm | - | 185 W/m² | - |
| 1777320531 | 21.67° C | 68% | 999.4 hPa | 0 mm | - | 226 W/m² | - |
| 1777320228 | 21.11° C | 68% | 999.6 hPa | 0 mm | - | 162 W/m² | - |
| 1777319925 | 21.67° C | 67% | 999.4 hPa | 0 mm | - | 168 W/m² | - |
| 1777319622 | 21.67° C | 66% | 999.4 hPa | 0 mm | - | 247 W/m² | - |
| 1777319319 | 21.67° C | 66% | 999.3 hPa | 0 mm | - | 235 W/m² | - |
| 1777319016 | 22.22° C | 66% | 999.4 hPa | 0 mm | - | 251 W/m² | - |
* Rain latest hour (hover to see other rain measurements)
** Current wind speed in m/s (hover to see current wind gust speed)